Showing default

IRIDIUM 114, 41923

Orbit data source: Space-Track

IRIDIUM 114, 41923 is a payload satellite owned by Iridium (US) in LEO that was launched on Sat, 14 Jan 2017 UTC via an FALCON 9 launch vehicle from the Air Force Western Test Range (AFWTR). Payload-class satellites include a variety of spacecraft equipped with specific instruments for various scientific and technological missions. These include communications satellites like Starlink; space stations such as the ISS; scientific satellites like the Hubble; Earth observation satellites from companies like Planet Labs, Umbra, and HawkEye 360; GPS; miniature CubeSats for education and research; and military/defense satellites.

Loading next visibility...
Identifier
41923, 2017-003G
Orbit
LEO
Country
Flag of USUS
Related business
Manufacturer
OATK SSG Gilbert
Mission
Operational Commercial Communications
Bus & Motor
ELITEBUS, Unknown motor
Mass
860 kg wet, 700 kg dry
Launch date (UTC)
2017-01-14 (9 years ago)
Launch vehicle
FALCON 9
Launch site
Air Force Western Test Range (AFWTR)
Object type
Payload
Rocket body
Debris
Shape & HBR
Trap Box + 2 Pan, 4.8 m
Radar Cross Section
10.154 m², Large (>1 m²)

Expand to show TLE details & history
Last TLE update: 9 hours ago

TLE from 9 hours ago
0 IRIDIUM 114
1 41923U 17003G   25310.16604332  .00000282  00000-0  93714-4 0  9996
2 41923  86.4017 181.6280 0002163  80.3211 279.8229 14.34219361461284
Epoch: 2025-11-06T03:59Z
TLE epoch observation values (Epoch: 2025-11-06T03:59:06.142Z)
Latitude
-0.00005°
Longitude
76.22414°
Altitude
780.449 km
Speed
7.464 km/s
True Right ascension
12h 06m 30s
True Declination
0° 00' 00"
Sunlit
Object was in daylight at epoch
Visualization orbit readout
Latitude
Unknown
Longitude
Unknown
Altitude
Unknown
Speed
Unknown
Apparent Right ascension
Unknown
Apparent Declination
Unknown
Sunlit
N/A
Visualization observer readout
Local Sidereal Time
09:17:45
Azimuth
Unknown
Elevation
Unknown
Doppler factor
Unknown
Orbital elements
Apogee altitude
776.173 km
Perigee altitude
773.079 km
Semi-major axis
7,152.763 km
Eccentricity
0.00022
Inclination
86.4017°
RAAN
181.628°
Arg. of periapsis
80.3211°
True anomaly
279.79848°
Mean anomaly
279.8229°
Eccentric anomaly
279.81069°
Mean motion
3.58783 °/min
Orbital period
100.34 mins
BSTAR
0.000093714
Loading maneuver chart data...
Computing Atmospheric mass density...
Loading historical data...
Loading historical data...
Loading historical data...
Loading historical data...
Loading historical data...
Loading historical data...
Loading historical data...

Documentation

Showing up to 5 results
|